When you browse on this site, cookies collect data to enhance your experience and personalize the content and advertising you see.
Visit our Privacy Policy to learn more. By continuing to use the site, you agree to this use of cookies and data.
  • în România
  • Lista ţărilor
  • Pe 7 zile
  • Temperatura apei
  • Hartă satelitară
  • Meteo pe hartă
  • Widget-uri
  • user-avatar
    Intrare

    Meteo pe oră la Córdoba

    Astăzi, 24 Martie, Duminică

    Timp Temperatura Precipitaţii Vânt Presiune Umiditate
    00:00 +21°C° 0 mm 1 m/s 724 mmHg 67%
    01:00 +21°C° 0 mm 1 m/s 724 mmHg 67%
    02:00 +21°C° 0 mm 1 m/s 724 mmHg 67%
    03:00 +21°C° 0 mm 1 m/s 725 mmHg 67%
    04:00 +21°C° 0 mm 1 m/s 725 mmHg 66%
    05:00 +19°C° 0 mm 2 m/s 725 mmHg 66%
    06:00 +20°C° 0 mm 3 m/s 725 mmHg 60%
    07:00 +20°C° 0 mm 4 m/s 726 mmHg 55%
    08:00 +21°C° 0 mm 6 m/s 727 mmHg 50%
    09:00 +22°C° 0 mm 5 m/s 727 mmHg 46%
    10:00 +23°C° 0 mm 5 m/s 727 mmHg 42%
    11:00 +25°C° 0 mm 5 m/s 727 mmHg 39%
    12:00 +26°C° 0 mm 5 m/s 727 mmHg 37%
    13:00 +26°C° 0 mm 4 m/s 727 mmHg 35%
    14:00 +27°C° 0 mm 4 m/s 726 mmHg 33%
    15:00 +27°C° 0 mm 4 m/s 726 mmHg 35%
    16:00 +26°C° 0 mm 3 m/s 725 mmHg 36%
    17:00 +26°C° 0 mm 3 m/s 725 mmHg 37%
    18:00 +24°C° 0 mm 2 m/s 725 mmHg 42%
    19:00 +21°C° 0 mm 2 m/s 725 mmHg 47%
    20:00 +19°C° 0 mm 1 m/s 725 mmHg 51%
    21:00 +19°C° 0 mm 1 m/s 726 mmHg 53%
    22:00 +18°C° 0 mm 1 m/s 726 mmHg 54%
    23:00 +18°C° 0 mm 1 m/s 726 mmHg 55%

    Mâine, 25 Martie, Luni

    Timp Temperatura Precipitaţii Vânt Presiune Umiditate
    00:00 +16°C° 0 mm 1 m/s 726 mmHg 55%
    01:00 +16°C° 0 mm 1 m/s 726 mmHg 56%
    02:00 +15°C° 0 mm 1 m/s 726 mmHg 56%
    03:00 +15°C° 0 mm 1 m/s 726 mmHg 56%
    04:00 +15°C° 0 mm 1 m/s 726 mmHg 56%
    05:00 +15°C° 0 mm 1 m/s 726 mmHg 55%
    06:00 +15°C° 0.4 mm 1 m/s 726 mmHg 60%
    07:00 +15°C° 0.4 mm 1 m/s 727 mmHg 65%
    08:00 +15°C° 0.4 mm 1 m/s 727 mmHg 70%
    09:00 +15°C° 0.1 mm 1 m/s 727 mmHg 71%
    10:00 +15°C° 0.1 mm 1 m/s 727 mmHg 72%
    11:00 +15°C° 0.1 mm 1 m/s 727 mmHg 72%
    12:00 +15°C° 0.3 mm 1 m/s 727 mmHg 72%
    13:00 +16°C° 0.3 mm 1 m/s 727 mmHg 71%
    14:00 +16°C° 0.3 mm 1 m/s 727 mmHg 70%
    15:00 +16°C° 0 mm 2 m/s 727 mmHg 71%
    16:00 +16°C° 0 mm 2 m/s 726 mmHg 73%
    17:00 +16°C° 0 mm 2 m/s 726 mmHg 75%
    18:00 +15°C° 0 mm 1 m/s 726 mmHg 79%
    19:00 +14°C° 0 mm 1 m/s 727 mmHg 83%
    20:00 +12°C° 0 mm 0 m/s 727 mmHg 87%
    21:00 +13°C° 0 mm 1 m/s 727 mmHg 85%
    22:00 +13°C° 0 mm 1 m/s 728 mmHg 84%
    23:00 +13°C° 0 mm 1 m/s 728 mmHg 82%

    Poimâine, 26 Martie, Marţi

    Timp Temperatura Precipitaţii Vânt Presiune Umiditate
    00:00 +13°C° 0 mm 1 m/s 728 mmHg 81%
    01:00 +13°C° 0 mm 1 m/s 728 mmHg 80%
    02:00 +13°C° 0 mm 1 m/s 728 mmHg 80%
    03:00 +13°C° 0 mm 1 m/s 728 mmHg 79%
    04:00 +13°C° 0 mm 1 m/s 728 mmHg 79%
    05:00 +13°C° 0 mm 1 m/s 728 mmHg 79%
    06:00 +14°C° 0 mm 1 m/s 729 mmHg 76%
    07:00 +14°C° 0 mm 1 m/s 729 mmHg 73%
    08:00 +15°C° 0 mm 2 m/s 730 mmHg 69%
    09:00 +17°C° 0 mm 2 m/s 730 mmHg 62%
    10:00 +18°C° 0 mm 2 m/s 730 mmHg 54%
    11:00 +20°C° 0 mm 3 m/s 731 mmHg 46%
    12:00 +20°C° 0 mm 3 m/s 730 mmHg 45%
    13:00 +20°C° 0 mm 3 m/s 730 mmHg 45%
    14:00 +20°C° 0 mm 3 m/s 729 mmHg 45%
    15:00 +20°C° 0 mm 3 m/s 729 mmHg 45%
    16:00 +20°C° 0 mm 2 m/s 728 mmHg 45%
    17:00 +19°C° 0 mm 2 m/s 728 mmHg 45%
    18:00 +18°C° 0 mm 2 m/s 728 mmHg 49%
    19:00 +17°C° 0 mm 2 m/s 729 mmHg 53%
    20:00 +15°C° 0 mm 1 m/s 729 mmHg 56%
    21:00 +16°C° 0 mm 2 m/s 729 mmHg 54%
    22:00 +16°C° 0 mm 2 m/s 730 mmHg 52%
    23:00 +17°C° 0 mm 2 m/s 730 mmHg 50%

    27 Martie, Miercuri

    Timp Temperatura Precipitaţii Vânt Presiune Umiditate
    00:00 +16°C° 0 mm 2 m/s 730 mmHg 53%
    01:00 +16°C° 0 mm 1 m/s 730 mmHg 56%
    02:00 +16°C° 0 mm 1 m/s 730 mmHg 59%
    03:00 +15°C° 0 mm 1 m/s 730 mmHg 61%
    04:00 +14°C° 0 mm 1 m/s 729 mmHg 64%
    05:00 +14°C° 0 mm 1 m/s 729 mmHg 67%
    06:00 +14°C° 0 mm 1 m/s 730 mmHg 65%
    07:00 +15°C° 0 mm 1 m/s 730 mmHg 62%
    08:00 +14°C° 0 mm 0 m/s 730 mmHg 60%
    09:00 +16°C° 0 mm 1 m/s 731 mmHg 59%
    10:00 +16°C° 0 mm 1 m/s 731 mmHg 58%
    11:00 +17°C° 0 mm 2 m/s 731 mmHg 57%
    12:00 +18°C° 0 mm 2 m/s 730 mmHg 56%
    13:00 +19°C° 0 mm 2 m/s 730 mmHg 55%
    14:00 +19°C° 0 mm 2 m/s 729 mmHg 53%
    15:00 +19°C° 0 mm 2 m/s 729 mmHg 53%
    16:00 +20°C° 0 mm 2 m/s 729 mmHg 53%
    17:00 +20°C° 0 mm 2 m/s 728 mmHg 53%
    18:00 +19°C° 0 mm 2 m/s 729 mmHg 56%
    19:00 +19°C° 0 mm 1 m/s 729 mmHg 58%
    20:00 +16°C° 0 mm 0 m/s 729 mmHg 60%
    21:00 +16°C° 0 mm 0 m/s 729 mmHg 60%
    22:00 +18°C° 0 mm 1 m/s 729 mmHg 60%
    23:00 +18°C° 0 mm 1 m/s 730 mmHg 60%

    28 Martie, Joi

    Timp Temperatura Precipitaţii Vânt Presiune Umiditate
    00:00 +18°C° 0 mm 1 m/s 729 mmHg 59%
    01:00 +18°C° 0 mm 1 m/s 729 mmHg 59%
    02:00 +18°C° 0 mm 1 m/s 729 mmHg 58%
    03:00 +18°C° 0 mm 1 m/s 729 mmHg 60%
    04:00 +16°C° 0 mm 1 m/s 728 mmHg 62%
    05:00 +16°C° 0 mm 1 m/s 728 mmHg 64%
    06:00 +16°C° 0 mm 1 m/s 729 mmHg 62%
    07:00 +18°C° 0 mm 1 m/s 729 mmHg 60%
    08:00 +19°C° 0 mm 1 m/s 729 mmHg 58%
    09:00 +21°C° 0 mm 1 m/s 729 mmHg 53%
    10:00 +23°C° 0 mm 2 m/s 730 mmHg 49%
    11:00 +25°C° 0 mm 3 m/s 730 mmHg 45%
    12:00 +26°C° 0 mm 3 m/s 729 mmHg 44%
    13:00 +26°C° 0 mm 4 m/s 729 mmHg 43%
    14:00 +27°C° 0 mm 4 m/s 728 mmHg 42%
    15:00 +27°C° 0 mm 4 m/s 728 mmHg 44%
    16:00 +26°C° 0 mm 4 m/s 727 mmHg 45%
    17:00 +25°C° 0 mm 4 m/s 727 mmHg 47%
    18:00 +22°C° 0 mm 3 m/s 727 mmHg 53%
    19:00 +21°C° 0 mm 2 m/s 727 mmHg 59%
    20:00 +20°C° 0 mm 1 m/s 728 mmHg 65%
    21:00 +19°C° 0 mm 1 m/s 728 mmHg 66%
    22:00 +19°C° 0 mm 1 m/s 728 mmHg 67%
    23:00 +18°C° 0 mm 1 m/s 728 mmHg 68%

    29 Martie, Vineri

    Timp Temperatura Precipitaţii Vânt Presiune Umiditate
    00:00 +18°C° 0 mm 1 m/s 728 mmHg 69%
    01:00 +18°C° 0 mm 1 m/s 727 mmHg 70%
    02:00 +18°C° 0 mm 1 m/s 727 mmHg 70%
    03:00 +18°C° 0 mm 1 m/s 727 mmHg 70%
    04:00 +18°C° 0 mm 1 m/s 726 mmHg 71%
    05:00 +16°C° 0 mm 1 m/s 726 mmHg 71%
    06:00 +19°C° 0 mm 1 m/s 727 mmHg 67%
    07:00 +20°C° 0 mm 1 m/s 727 mmHg 63%
    08:00 +22°C° 0 mm 1 m/s 727 mmHg 59%
    09:00 +24°C° 0 mm 2 m/s 727 mmHg 52%
    10:00 +27°C° 0 mm 2 m/s 727 mmHg 46%
    11:00 +29°C° 0 mm 3 m/s 727 mmHg 39%
    12:00 +30°C° 0 mm 3 m/s 726 mmHg 37%
    13:00 +31°C° 0 mm 3 m/s 726 mmHg 35%
    14:00 +33°C° 0 mm 4 m/s 725 mmHg 33%
    15:00 +33°C° 0 mm 4 m/s 724 mmHg 34%
    16:00 +33°C° 0 mm 4 m/s 724 mmHg 36%
    17:00 +32°C° 0 mm 4 m/s 724 mmHg 37%
    18:00 +29°C° 0 mm 3 m/s 724 mmHg 43%
    19:00 +27°C° 0 mm 3 m/s 724 mmHg 49%
    20:00 +24°C° 0 mm 2 m/s 724 mmHg 56%
    21:00 +24°C° 0 mm 2 m/s 724 mmHg 58%
    22:00 +23°C° 0 mm 2 m/s 724 mmHg 59%
    23:00 +22°C° 0 mm 1 m/s 724 mmHg 61%
    Arată mai mult